SCP
0 0 0 0 0 0 0 0 0 0 0 0 0 0 0 0 0 0 0 0 0 0
0 0 0 0 0 0 0 0 0 0 0 0 0 0 0 0 0 0 0 0 0 0
0 0 0 0 0 0 0 0 0 0 0 0 0 0 0 0 0 0 0 0 0 0
0 0 0 0 0 0 0 0 0 0 0 0 0 0 0 0 0 0 0 0 0 0
0 0 0 0 0 0 0 0 0 0 0 0 0 0 0 0 0 0 0 0 0 0
0 0 0 0 0 0 0 0 0 0 0 0 0 0 0 0 0 0 0 0 0 0
0 0 0 0 0 0 0 0 0 0 0 0 0 0 0 0 0 0 0 0 0 0
0 0 0 0 0 0 0 0 0 0 0 0 0 0 0 0 0 0 0 0 0 0
0 0 0 0 0 0 0 0 0 0 0 0 0 0 0 0 0 0 0 0 0 0
0 0 0 0 0 0 0 0 0 0 0 0 0 0 0 0 0 0 0 0 0 0
0 0 0 0 0 0 0 0 0 0 0 0 0 0 0 0 0 0 0 0 0 0
0 0 0 0 0 0 0 0 0 0 0 0 0 0 0 0 0 0 0 0 0 0
0 0 0 0 0 0 0 0 0 0 0 0 0 0 0 0 0 0 0 0 0 0
0 0 0 0 0 0 0 0 0 0 0 0 0 0 0 0 0 0 0 0 0 0
Wind_Speed_500mb
9 5 10 14 17 21 24 28 31 33 38 43 51 37 36 32 25 25 26 27 22 28
9 6 8 11 14 18 22 23 24 25 30 36 46 49 36 31 29 26 26 26 21 26
8 5 5 9 12 14 16 17 22 29 35 36 42 47 30 29 30 27 25 28 23 26
7 5 5 12 15 13 14 18 27 29 33 39 51 36 27 27 27 23 25 25 23 25
6 6 5 9 7 11 15 22 25 27 29 40 46 38 32 26 25 29 28 31 26 27
5 5 5 4 6 12 18 26 24 24 26 33 43 39 32 28 27 28 27 31 25 24
9 9 3 2 7 14 20 25 24 24 24 26 37 45 35 26 29 26 26 29 25 25
14 6 3 6 9 16 20 22 23 22 23 21 32 38 48 29 25 28 26 31 23 23
12 7 4 8 9 17 23 22 23 23 19 24 31 33 34 30 25 28 25 34 29 19
12 6 3 7 12 19 24 22 21 22 20 23 27 34 34 23 23 25 23 29 32 21
12 6 9 10 15 19 23 22 20 21 17 19 22 38 39 30 24 25 20 27 29 27
9 11 12 14 12 18 20 21 20 17 16 21 27 31 34 29 26 20 20 22 26 27
14 15 19 18 14 13 16 16 17 15 18 30 33 36 34 25 24 20 20 18 21 25
12 15 21 18 18 15 14 10 15 19 19 18 19 23 28 28 22 21 19 20 17 16
Wind_Direction_500mb
146 119 62 50 31 26 21 21 24 17 15 11 6 3 360 1 354 360 353 351 350 352
162 112 81 44 31 21 18 19 12 11 7 11 7 3 358 358 2 356 356 353 354 354
166 138 74 30 15 27 26 24 13 9 11 2 357 355 359 360 359 356 0 354 357 358
188 180 90 37 24 35 33 15 11 7 12 12 358 1 2 3 8 11 1 360 359 357
201 183 101 39 49 15 13 11 357 357 5 17 15 13 15 15 14 1 2 358 2 354
194 161 93 80 33 14 13 7 351 352 2 12 20 14 10 13 11 4 357 355 356 1
169 145 119 12 354 356 2 355 350 356 356 7 16 17 9 9 10 358 359 0 352 356
152 148 263 324 334 340 346 343 347 351 5 6 12 16 14 2 7 360 3 0 355 352
157 199 287 358 333 343 336 340 340 342 345 4 6 5 7 5 3 6 2 7 7 351
180 214 274 317 322 336 341 340 333 334 351 357 6 8 356 351 356 360 8 17 17 23
208 251 303 292 306 329 347 345 334 337 353 360 2 14 14 4 356 1 17 20 20 17
212 245 286 296 307 325 344 356 347 356 356 355 6 12 6 3 5 4 23 16 17 14
216 237 269 287 306 329 341 359 5 359 4 6 360 354 359 358 356 359 12 15 18 10
251 266 275 281 302 316 339 354 350 357 355 352 347 349 349 343 338 344 348 351 356 13
Wind_Speed_850mb
9 5 10 14 17 21 24 28 31 33 38 43 51 37 36 32 25 25 26 27 22 28
9 6 8 11 14 18 22 23 24 25 30 36 46 49 36 31 29 26 26 26 21 26
8 5 5 9 12 14 16 17 22 29 35 36 42 47 30 29 30 27 25 28 23 26
7 5 5 12 15 13 14 18 27 29 33 39 51 36 27 27 27 23 25 25 23 25
6 6 5 9 7 11 15 22 25 27 29 40 46 38 32 26 25 29 28 31 26 27
5 5 5 4 6 12 18 26 24 24 26 33 43 39 32 28 27 28 27 31 25 24
9 9 3 2 7 14 20 25 24 24 24 26 37 45 35 26 29 26 26 29 25 25
14 6 3 6 9 16 20 22 23 22 23 21 32 38 48 29 25 28 26 31 23 23
12 7 4 8 9 17 23 22 23 23 19 24 31 33 34 30 25 28 25 34 29 19
12 6 3 7 12 19 24 22 21 22 20 23 27 34 34 23 23 25 23 29 32 21
12 6 9 10 15 19 23 22 20 21 17 19 22 38 39 30 24 25 20 27 29 27
9 11 12 14 12 18 20 21 20 17 16 21 27 31 34 29 26 20 20 22 26 27
14 15 19 18 14 13 16 16 17 15 18 30 33 36 34 25 24 20 20 18 21 25
12 15 21 18 18 15 14 10 15 19 19 18 19 23 28 28 22 21 19 20 17 16
Wind_Direction_850mb
146 119 62 50 31 26 21 21 24 17 15 11 6 3 360 1 354 360 353 351 350 352
162 112 81 44 31 21 18 19 12 11 7 11 7 3 358 358 2 356 356 353 354 354
166 138 74 30 15 27 26 24 13 9 11 2 357 355 359 360 359 356 0 354 357 358
188 180 90 37 24 35 33 15 11 7 12 12 358 1 2 3 8 11 1 360 359 357
201 183 101 39 49 15 13 11 357 357 5 17 15 13 15 15 14 1 2 358 2 354
194 161 93 80 33 14 13 7 351 352 2 12 20 14 10 13 11 4 357 355 356 1
169 145 119 12 354 356 2 355 350 356 356 7 16 17 9 9 10 358 359 0 352 356
152 148 263 324 334 340 346 343 347 351 5 6 12 16 14 2 7 360 3 0 355 352
157 199 287 358 333 343 336 340 340 342 345 4 6 5 7 5 3 6 2 7 7 351
180 214 274 317 322 336 341 340 333 334 351 357 6 8 356 351 356 360 8 17 17 23
208 251 303 292 306 329 347 345 334 337 353 360 2 14 14 4 356 1 17 20 20 17
212 245 286 296 307 325 344 356 347 356 356 355 6 12 6 3 5 4 23 16 17 14
216 237 269 287 306 329 341 359 5 359 4 6 360 354 359 358 356 359 12 15 18 10
251 266 275 281 302 316 339 354 350 357 355 352 347 349 349 343 338 344 348 351 356 13